Location: Davayat
(45.9471°N, 3.1105°E)
Time: 22:48:58
(UTC+00:00)

Meteor 2-12 Rocket - Pass Details

Date: 28 April 2021
Orbit: 935 x 958 km, 82.5° (Epoch: 16 May)

Event Time Altitude Azimuth Distance (km) Brightness Sun altitude
Rises 22:31:10 0° 355° (N) 3,624 8.7 -27.3°
Reaches altitude 10° 22:33:47 10° 1° (N) 2,672 7.7 -27.5°
Maximum altitude 22:39:40 48° 75° (ENE) 1,211 4.9 -27.8°
Enters shadow 22:40:00 48° 85° (E) 1,218 4.8 -27.8°
